Flag for Germany Past Weather in Rheda-Wiedenbrück, North Rhine-Westphalia, Germany — Yesterday and Last 2 Weeks

Now
70 °F

Passing clouds.


Feels Like: 70 °F
Forecast: 55 / 66 °F
Wind: 6 mph from South

Location: Paderborn / Lippstadt

Current Time: Jun 28, 2016 at 8:57:21 PM

Latest Report: Jun 28, 2016 at 8:20 PM


Visibility: N/A

Pressure: 29.92 "Hg

Humidity: 57%

Dew Point: 54 °F

Location of Rheda-WiedenbrückLocation

Past Weather in Rheda-Wiedenbrück — Graph

°F

Rheda-Wiedenbrück Temperature Yesterday

Maximum temperature yesterday: 66 °F (at 12:20 PM)
Minimum temperature yesterday: 52 °F (at 3:20 AM)
Average temperature yesterday: 59 °F

High & Low Weather Summary for the Past Weeks

 TemperatureHumidityPressure
High90 °F (Jun 23, 2:50 PM)100% (Jun 19, 8:50 AM)30.24 "Hg (Jun 19, 8:50 AM)
Low48 °F (Jun 20, 12:50 AM)38% (Jun 23, 2:20 PM)29.47 "Hg (Jun 14, 3:20 PM)
Average62 °F77%29.94 "Hg
* Reported Jun 13 7:20 PM — Jun 28 7:20 PM, Rheda-Wiedenbrück, Weather by CustomWeather, © 2016

Note: Actual official high and low records may vary slightly from our data, if they occured in-between our weather recording intervals... More about our weather records

Advertising

Rheda-Wiedenbrück Weather History for the Previous 24 Hours

Scroll right to see more
 ConditionsComfort  
Time TempWeatherWind HumidityBarometerVisibility
7:20 PM
Tue, Jun 28
72 °FSunny.8 mph50%29.95 "Hg10 mi
6:50 PM70 °FPassing clouds.6 mph53%29.95 "HgN/A
6:20 PM72 °FSunny.5 mph50%29.98 "Hg10 mi
5:50 PM72 °FSunny.3 mph47%29.98 "Hg10 mi
5:20 PM70 °FSunny.7 mph53%29.98 "Hg10 mi
4:50 PM70 °FPassing clouds.5 mph50%30.01 "HgN/A
4:20 PM70 °FPassing clouds.9 mph50%30.01 "HgN/A
3:50 PM70 °FScattered clouds.6 mph53%30.01 "HgN/A
3:20 PM68 °FScattered clouds.8 mph53%30.01 "HgN/A
2:50 PM68 °FScattered clouds.7 mph53%30.04 "HgN/A
2:20 PM68 °FPassing clouds.6 mph53%30.04 "HgN/A
1:50 PM66 °FPassing clouds.6 mph52%30.07 "HgN/A
1:20 PM68 °FPassing clouds.8 mph56%30.07 "HgN/A
12:50 PM66 °FPassing clouds.5 mph52%30.07 "HgN/A
12:20 PM64 °FPassing clouds.5 mph56%30.09 "HgN/A
11:50 AM63 °FPassing clouds.5 mph52%30.09 "HgN/A
11:20 AM63 °FPassing clouds.3 mph56%30.09 "HgN/A
10:50 AM61 °FPassing clouds.5 mph63%30.09 "HgN/A
10:20 AM61 °FPassing clouds.2 mph68%30.09 "HgN/A
9:50 AM59 °FPassing clouds.2 mph72%30.09 "HgN/A
9:20 AM59 °FPassing clouds.2 mph72%30.09 "HgN/A
8:50 AM57 °FPassing clouds.2 mph77%30.09 "HgN/A
8:20 AM57 °FPassing clouds.2 mph82%30.09 "HgN/A
7:50 AM55 °FPassing clouds.2 mph94%30.09 "Hg5 mi
7:20 AM55 °FPassing clouds.2 mph94%30.09 "Hg5 mi
6:50 AM54 °FPassing clouds.1 mph100%30.09 "Hg5 mi
6:20 AM54 °FPassing clouds.1 mph94%30.09 "Hg4 mi
5:50 AM54 °FPassing clouds.5 mph94%30.09 "Hg4 mi
5:20 AM54 °FFog.1 mph94%30.09 "Hg2 mi
4:50 AM54 °FFog.3 mph94%30.09 "Hg3 mi
4:20 AM54 °FPassing clouds.3 mph94%30.09 "Hg4 mi
3:50 AM55 °FPassing clouds.3 mph94%30.09 "Hg4 mi
3:20 AM55 °FPassing clouds.6 mph94%30.09 "Hg5 mi
2:50 AM55 °FPassing clouds.3 mph94%30.09 "HgN/A
2:20 AM55 °FPassing clouds.3 mph94%30.09 "HgN/A
1:50 AM55 °FPassing clouds.5 mph94%30.09 "HgN/A
1:20 AM55 °FPassing clouds.6 mph94%30.09 "HgN/A
12:50 AM55 °FPassing clouds.6 mph94%30.09 "HgN/A
12:20 AM55 °FPassing clouds.7 mph94%30.09 "HgN/A
11:50 PM
Mon, Jun 27
57 °FPassing clouds.5 mph88%30.09 "HgN/A
11:20 PM57 °FPassing clouds.6 mph94%30.09 "HgN/A
10:50 PM57 °FPartly cloudy.8 mph94%30.07 "HgN/A
10:20 PM59 °FLight rain. Broken clouds.12 mph94%30.07 "HgN/A
9:50 PM61 °FBroken clouds.9 mph88%30.04 "HgN/A
9:20 PM61 °FBroken clouds.9 mph88%30.04 "HgN/A
8:50 PM61 °FBroken clouds.9 mph94%30.04 "HgN/A
8:20 PM61 °FBroken clouds.8 mph88%30.04 "HgN/A
Weather by CustomWeather, © 2016

See weather overviewHow to use our weather pages